Regional Weather Roundup
Issued by NWS

Home | Current Version | Previous Version | Graphics & Text | Print | Product List | Glossary Off
Versions: 1 2 3 4 5 6 7 8 9 10 11 12 13 14 15 16 17 18 19 20 21 22 23 24 25 26 27 28 29 30 31 32 33 34 35 36 37 38 39 40 41 42 43 44 45 46 47 48 49 50

000
ASUS43 KTOP 251408
RWRKS

WEATHER ROUNDUP FOR KANSAS
NATIONAL WEATHER SERVICE GOODLAND KS
800 AM CST TUE NOV 25 2014

NOTE:  "FAIR" INDICATES FEW OR NO CLOUDS BELOW 12,000 FEET WITH NO
SIGNIFICANT WEATHER AND/OR OBSTRUCTIONS TO VISIBILITY.

KSZ001>006-013>018-027>032-041>047-251500-
NORTHWEST KANSAS

CITY           SKY/WX    TMP DP  RH WIND       PRES   REMARKS
GOODLAND       CLEAR     22  14  71 SW13      30.11F WCI  10
HAYS           CLEAR     23  12  63 W8        30.19S
HILL CITY      CLEAR     22  16  78 W7        30.16F
RUSSELL        CLEAR     24  21  88 SW10      30.17F WCI  14
$$

KSZ061>065-074>080-084>089-251500-
SOUTHWEST KANSAS

CITY           SKY/WX    TMP DP  RH WIND       PRES   REMARKS
DODGE CITY     CLEAR     22  17  81 SW6       30.22S
ELKHART          N/A    N/A N/A N/A MISG        N/A
GARDEN CITY    CLEAR     32  14  47 W7        30.21S
GREAT BEND     CLEAR     25  18  74 SW8       30.23S
LIBERAL        CLEAR     21  14  73 W7        30.26S
PRATT          CLEAR     28  27  93 W7        30.24S
$$

KSZ066>073-081>083-090>101-251500-
SOUTHEAST KANSAS

CITY           SKY/WX    TMP DP  RH WIND       PRES   REMARKS
CHANUTE        CLEAR     24  16  71 NW3       30.25R
COFFEYVILLE    CLEAR     28  17  63 CALM      30.27R
HUTCHINSON     CLEAR     20  16  84 S3        30.23S
MEDICINE LODGE   N/A     31  26  82 W3        30.26R
NEWTON         CLEAR     25  14  63 SW7       30.23S
PARSONS        CLEAR     21  17  84 CALM      30.27S
WICHITA INTL   PTCLDY    26  19  74 SW5       30.24S
WICHITA JABRA  PTCLDY    28  19  69 SW7       30.24R
WICHITA MCCONL PTCLDY    28  24  85 CALM      30.25S
WINFIELD       CLOUDY    30  23  75 CALM      30.28R
$$

KSZ007>012-019>026-033>040-048>060-102>105-251500-
NORTHEAST KANSAS

CITY           SKY/WX    TMP DP  RH WIND       PRES   REMARKS
CONCORDIA      CLEAR     24  20  84 SW10      30.17S WCI  14
EMPORIA        CLEAR     21  14  74 W5        30.22S
LAWRENCE       CLEAR     19  13  77 CALM      30.23R
MANHATTAN      CLEAR     21  15  78 SW7       30.22R
MARYSVILLE     CLEAR     19  14  79 SW5       30.18R
OLATHE IND     CLEAR     22  12  65 W6        30.21S
OLATHE EXE     CLEAR     24  11  57 W5        30.20R
SALINA         CLEAR     21  15  78 SW3       30.23R
TOPEKA BILLARD CLEAR     22  13  68 CALM      30.22S
TOPEKA FORBES  CLEAR     21  13  71 SW5       30.21R
$$



USA.gov is the U.S. government's official web portal to all federal, state and local government web resources and services.